Voltar ao catálogo

STARLINK-34926

AtivoComunicaçõesSSO
NORAD 65194·PAYLOAD·🇺🇸 United States

Lançado Aug 14, 2025 de Vandenberg Space Force Base

Loading…

Próximas Passagens (próximas 24 horas)

TLE

AtualizadoSource: CelesTrak SupGP

Época: Sep 14, 2026, 23:06 UTC

1 65194C 25175W   26257.96298611  .00071145  00000+0  22089-2 0  2576
2 65194  97.2843 126.9957 0001836  92.8289 212.6527 15.33396970    17

Acompanhe STARLINK-34926 em tempo real com AllMySat

Download on the App Store